Showing default

INTELSAT 32E, 41945

Orbit data source: Space-Track

INTELSAT 32E, 41945 is an American payload satellite in GEO that was launched on Tue, 14 Feb 2017 UTC via an ARIANE 5ECA launch vehicle from the French Guiana (FRGUI). Payload-class satellites include a variety of spacecraft equipped with specific instruments for various scientific and technological missions. These include communications satellites like Starlink; space stations such as the ISS; scientific satellites like the Hubble; Earth observation satellites from companies like Planet Labs, Umbra, and HawkEye 360; GPS; miniature CubeSats for education and research; and military/defense satellites.

Loading next visibility...
Identifier
41945, 2017-007B
Orbit
GEO
Country
Flag of UnknownUnknown / ITSO
Related business
Manufacturer
Airbus/Toulouse
Mission
Operational Commercial Communications
Bus & Motor
EUROSTAR 3000X, R-4D?
Mass
~6,300 kg wet, ~3,000 kg dry
Launch date (UTC)
2017-02-14 (9 years ago)
Launch vehicle
ARIANE 5ECA
Launch site
French Guiana (FRGUI)
Object type
Payload
Rocket body
Debris
Shape & HBR
Box + 2 Pan, 19.5 m
Radar Cross Section
46.485 m², Large (>1 m²)

Expand to show TLE details & history
Last TLE update: 14 hours ago

TLE from 14 hours ago
0 INTELSAT 32E
1 41945U 17007B   25260.22406034 -.00000289  00000-0  00000-0 0  9994
2 41945   0.0193 105.5566 0000419 232.3035  56.0262  1.00269591 31488
Epoch: 2025-09-17T05:22Z
TLE epoch observation values (Epoch: 2025-09-17T05:22:38.813Z)
Latitude
-0.03351°
Longitude
-43.17293°
Altitude
35,785.711 km
Speed
3.075 km/s
True Right ascension
02h 15m 34s
True Declination
0° 02' 01"
Sunlit
Object was in daylight at epoch
Visualization orbit readout
Latitude
Unknown
Longitude
Unknown
Altitude
Unknown
Speed
Unknown
Apparent Right ascension
Unknown
Apparent Declination
Unknown
Sunlit
N/A
Visualization observer readout
Local Sidereal Time
12:34:26
Azimuth
Unknown
Elevation
Unknown
Doppler factor
Unknown
Orbital elements
Apogee altitude
35,790.047 km
Perigee altitude
35,786.514 km
Semi-major axis
42,166.417 km
Eccentricity
0.00004
Inclination
0.0193°
RAAN
105.5566°
Arg. of periapsis
232.3035°
True anomaly
56.03018°
Mean anomaly
56.0262°
Eccentric anomaly
56.02819°
Mean motion
0.25066 °/min
Orbital period
1,436.18 mins
BSTAR
0
Loading maneuver chart data...
Computing Atmospheric mass density...
Loading historical data...
Loading historical data...
Loading historical data...
Loading historical data...
Loading historical data...
Loading historical data...
Loading historical data...
Other satellites on launch #7 in the year 2017 (2017-02-14 UTC)

Documentation

Showing up to 5 results
|